Location: Decatur Area Astronomy Club
(40.0275°N, 88.7810°W)
Time: 12:19:20
(UTC-05:00)

Daily predictions for brighter satellites

Satellite Brightness Start Highest point End
(mag) Time Altitude Azimuth Time Altitude Azimuth Time Altitude Azimuth
Cosmos 1452 Rocket 4.4 20:34:36 10° SSE 20:39:05 29° E 20:43:35 10° NE
COSMOS 2406 3.3 20:35:32 10° NNW 20:41:18 79° ENE 20:47:01 10° SSE
Cosmos 1190 Rocket 4.2 20:38:32 10° N 20:43:39 56° ENE 20:48:45 10° SSE
Cosmos 1408 4.2 20:44:50 10° SE 20:47:17 17° E 20:49:45 10° NE
Cosmos 2184 Rocket 4.0 20:42:39 10° S 20:48:47 76° E 20:54:59 10° N
Cosmos 2278 Rocket 3.0 20:44:22 10° SSE 20:49:12 30° ESE 20:54:02 10° NE
YAOGAN 11 4.3 20:45:16 10° SSE 20:49:44 65° ENE 20:54:16 10° N
ALOS 2.9 20:45:32 10° S 20:50:07 58° W 20:54:45 10° NNW
Cosmos 1825 3.6 20:48:44 10° SE 20:51:37 21° E 20:54:31 10° NE
Cosmos 1844 Rocket 2.7 20:46:30 10° S 20:52:06 67° ESE 20:57:42 10° NNE
SJ-11-01 4.5 20:47:56 10° SSE 20:52:35 59° ENE 20:57:16 10° N
Cosmos 1844 3.9 20:48:24 10° S 20:53:56 51° ESE 20:59:32 10° NNE
H-2A R/B 2.7 20:55:45 10° SE 20:59:46 39° ENE 21:03:43 10° N
FENGYUN 3A 4.5 20:55:27 10° S 21:00:41 53° W 21:05:58 10° NNW
Cosmos 1184 Rocket 4.3 20:59:21 11° SE 21:01:35 19° E 21:04:03 10° NE
CENTAUR R/B 3.6 20:55:09 10° NW 21:02:54 59° WSW 21:11:01 10° SSE
Meteor 2-10 Rocket 4.1 20:57:16 10° NNW 21:03:03 70° W 21:08:39 10° S
Cosmos 2082 Rocket 3.9 21:05:01 10° N 21:08:55 19° NE 21:12:48 10° E
Meteor 1-10 Rocket 4.4 21:04:51 10° N 21:10:41 82° W 21:16:23 10° S
EO 1 Delta rocket 4.4 21:05:29 10° NNE 21:11:25 53° E 21:16:15 10° S
Cosmos 676 Rocket 4.1 21:09:09 10° NNW 21:14:19 63° ENE 21:18:54 13° SSE
ISS -3.4 21:11:14 10° SW 21:14:26 59° SE 21:17:39 10° ENE
Centaur D-1A AC-32 4.1 21:13:52 10° SSW 21:15:28 11° S 21:16:46 10° SSE
USA 186 4.1 21:13:31 10° SSW 21:16:05 23° W 21:18:46 10° NW
Cosmos 1238 Rocket 3.3 21:13:04 10° NNE 21:16:08 34° E 21:18:32 17° SE
Cosmos 1174 3.3 21:13:27 10° NNW 21:16:38 57° ENE 21:18:31 20° SE
Cosmos 2056 Rocket 4.5 21:13:02 10° SW 21:18:02 50° WNW 21:23:01 10° N
Cosmos 1954 Rocket 4.3 21:13:55 10° N 21:19:01 53° ENE 21:23:04 16° SE
Cosmos 1862 3.4 21:15:25 10° S 21:19:24 56° E 21:23:24 10° NNE
SPOT 5 3.4 21:15:47 13° SE 21:20:20 52° ENE 21:25:32 10° N
COS B Rocket 3.2 21:22:15 10° N 21:26:17 63° E 21:29:13 15° S
Cosmos 1674 Rocket 4.1 21:23:17 10° NNW 21:27:41 58° W 21:32:01 10° S
Okean 2 Rocket 3.6 21:25:23 15° SSE 21:28:39 40° E 21:32:47 10° NNE
OAO 3 Rocket 4.4 21:24:43 10° SSW 21:28:40 24° SSE 21:30:20 20° SE
Okean 3 3.7 21:25:30 10° N 21:29:41 51° E 21:32:25 20° SSE
SL-27 R/B 4.1 21:28:57 10° NW 21:32:15 33° WSW 21:35:29 10° SSW
Cosmos 1606 2.8 21:30:32 10° N 21:34:28 79° W 21:37:46 14° S
Nadezhda 3 Rocket 4.0 21:30:43 10° N 21:37:07 86° E 21:43:14 11° S
Meteor 1-27 Rocket 3.7 21:32:50 10° NNW 21:38:25 81° W 21:43:36 12° S
Sich 1 Rocket 4.3 21:34:15 10° SSW 21:38:45 56° W 21:43:16 10° N
Cosmos 1782 Rocket 3.5 21:38:01 12° S 21:42:11 72° E 21:46:40 10° NNE
BREEZE-M DEB (TANK) 3.7 21:32:10 10° WNW 21:45:43 70° NNE 21:48:20 23° ESE
Meteor 2-13 Rocket 4.5 21:39:53 11° S 21:45:46 63° E 21:51:51 10° NNE
Cosmos 1782 4.5 21:42:10 10° NNW 21:45:47 32° W 21:49:24 10° SSW
BREEZE-M DEB (TANK) 4.3 21:47:34 10° NW 21:48:50 14° N 21:50:18 10° NNE
MetOp-B 4.1 21:46:21 20° SSE 21:50:04 80° ENE 21:55:26 10° N
GPS 2-05 Rocket1 3.4 21:46:41 10° WSW 21:50:09 39° S 21:50:40 36° SSE
COSMOS 2487 2.4 21:47:05 10° NNW 21:50:43 86° WSW 21:52:14 33° SSE
Envisat 3.5 21:46:05 11° S 21:50:51 58° W 21:55:53 10° NNW
APEX 3.4 21:51:35 20° S 21:54:07 60° ESE 21:58:58 10° NNE
DNEPR-1 R/B 3.9 21:51:09 10° NNW 21:56:31 64° NE 21:58:32 32° SE
Cosmos 1939 Rocket 4.3 21:53:47 10° SSW 21:57:17 32° W 22:00:50 10° NNW
Cosmos 1975 Rocket 3.0 21:53:47 10° N 21:58:08 88° W 22:00:24 28° S
Cosmos 2341 Rocket 4.2 21:54:50 10° SSW 22:01:08 74° W 22:07:26 10° N
Atlas Centaur 2 3.3 21:59:53 10° SW 22:00:49 12° SSW 22:00:49 12° SSW
Cosmos 1420 Rocket 3.9 21:57:14 10° SSW 22:02:29 89° ESE 22:07:44 10° NNE
Cosmos 614 Rocket 4.0 22:01:39 10° NNW 22:06:42 62° ENE 22:08:37 36° SE
ARGOS 3.1 22:05:13 31° SSE 22:07:48 70° ENE 22:13:08 10° N
Cosmos 1536 Rocket 4.2 22:06:44 10° N 22:10:57 39° ENE 22:11:41 36° ESE
ATLAS 5 CENTAUR R/B 4.5 22:06:45 10° WNW 22:11:00 20° WSW 22:15:25 10° SSW
Elektron 3 4.1 22:09:21 10° NW 22:12:19 84° SW 22:13:13 50° SSE
CZ-4 R/B 3.8 22:08:41 10° NNE 22:13:19 60° ESE 22:14:48 40° SSE
SL-8 Rocket 3.9 22:10:09 18° S 22:14:57 85° E 22:21:14 10° N
H-2A R/B 2.7 22:13:15 32° ESE 22:14:58 42° ENE 22:19:58 10° N
Timation 2 Rocket 3.8 22:10:35 10° NNW 22:16:36 86° WSW 22:19:21 34° SSE
Cosmos 1140 Rocket 3.6 22:11:39 10° NNW 22:16:47 69° WSW 22:19:08 32° S
YAOGAN 6 3.4 22:18:38 33° SW 22:19:41 45° W 22:23:04 10° NNW
USA 245 3.2 22:21:40 52° SW 22:22:12 61° W 22:26:07 10° NNW
Cosmos 1242 Rocket 3.3 22:20:13 10° NNW 22:23:46 49° W 22:24:43 38° SW
Meteor 1-25 Rocket 4.4 22:23:30 39° SSE 22:25:25 56° E 22:31:07 10° NNE
USA 234 3.4 22:19:46 10° ENE 22:25:59 45° SE 22:30:49 17° SSW
Cosmos 1825 4.5 22:24:02 10° SW 22:27:06 23° WNW 22:30:12 10° NNW
CZ-4B R/B 3.6 22:23:11 10° N 22:28:07 72° WNW 22:31:08 23° SSW
SPOT 1/Viking Rocket 3.8 22:28:02 32° S 22:30:23 63° WSW 22:35:34 10° NNW
Cosmos 1833 Rocket 2.8 22:26:35 10° NNW 22:32:10 62° ENE 22:33:42 45° ESE
Cosmos 2278 Rocket 3.6 22:27:51 10° SW 22:33:06 38° WNW 22:38:23 10° N
Cosmos 2151 Rocket 3.6 22:33:23 49° SSW 22:34:37 85° W 22:39:10 10° N
H-2A R/B 4.5 22:33:06 10° SW 22:35:54 17° W 22:38:41 10° NW
Landsat 7 3.7 22:36:06 58° SSE 22:37:02 80° ENE 22:41:48 10° N
Meteor 1-18 Rocket 4.2 22:36:00 10° N 22:41:57 82° E 22:43:43 48° SSE
Cosmos 864 Rocket 4.4 22:42:34 32° SSW 22:45:34 82° W 22:51:46 10° N
IGS 5A 3.6 22:47:10 61° ENE 22:47:10 61° ENE 22:51:07 10° N
CZ-3C R/B 4.2 22:43:06 10° SW 22:50:27 15° SSW 22:50:58 15° SSW
ISS -0.7 22:48:31 10° WNW 22:51:06 21° NNW 22:53:41 10° NNE
Cosmos 1812 3.1 22:48:12 10° N 22:51:28 58° NNE 22:51:28 58° NNE
Terra 1.6 22:52:21 73° SE 22:52:45 80° ENE 22:57:32 10° N
Cosmos 2082 Rocket 2.3 22:47:54 10° NNW 22:53:35 70° WSW 22:54:52 52° S
Cosmos 1300 Rocket 3.8 22:55:01 59° ENE 22:55:01 59° ENE 22:58:57 10° NNE
Cosmos 2366 rocket 4.3 22:51:57 27° SSW 22:55:29 65° W 23:01:48 10° N
Okean 1 Rocket 3.5 22:58:10 53° ENE 22:58:10 53° ENE 23:01:56 10° NNE
Spot 4 3.7 23:03:33 76° E 23:03:42 78° ENE 23:08:34 10° N
Okean 1-7 Rocket 3.9 23:03:12 10° N 23:07:07 58° NE 23:07:07 58° NE
Meteor 1-11 Rocket 3.9 23:12:12 56° E 23:12:16 56° E 23:17:54 10° NNE
DMSP B5D2-2 4.2 23:09:11 10° N 23:14:23 70° WNW 23:15:24 55° SW
Lacrosse 5 3.2 23:17:36 28° ENE 23:17:36 28° ENE 23:20:04 10° NE
USA 229 DEB 3.8 23:08:09 10° NW 23:15:13 68° WSW 23:16:52 52° S
USA 229 3.8 23:08:15 10° NW 23:15:19 68° WSW 23:16:58 53° S
Iridium 4 Rocket 4.1 23:12:07 10° N 23:17:51 50° E 23:17:58 50° E
Gbstr 26 Del rocket 3.8 23:18:16 10° NW 23:22:45 47° NNE 23:22:45 47° NNE
Cosmos 1331 Rocket 4.2 23:22:09 56° WSW 23:22:56 64° WNW 23:28:04 10° NNE
ASTEX 1 3.4 23:19:53 10° N 23:24:50 75° W 23:24:51 75° W
Cosmos 1000 Rocket 4.3 23:26:12 10° N 23:32:29 90° E 23:33:09 73° S
NOSS 3-1 (A) 4.4 23:26:11 10° NNW 23:33:38 57° NE 23:36:14 41° ESE
Cosmos 1400 Rocket 4.3 23:35:35 34° NNE 23:35:35 34° NNE 23:38:03 10° NNE
Cosmos 1536 4.5 23:36:20 29° NNE 23:36:20 29° NNE 23:38:24 10° NNE
Meteor 2-14 Rocket 4.5 23:36:47 63° E 23:36:47 63° E 23:42:47 10° NNE
Cosmos 2239 Rocket 4.3 23:36:32 75° S 23:37:08 87° E 23:43:29 10° N
Meteor 2-15 4.5 23:34:31 10° N 23:40:35 62° E 23:40:42 62° E
Cosmos 2369 Rocket 2.8 23:42:13 45° ENE 23:42:13 45° ENE 23:46:27 10° NNE
Meteor 1-23 Rocket 4.4 23:38:31 10° N 23:43:41 59° ENE 23:43:41 59° ENE
Meteor 1-19 Rocket 4.2 23:39:55 10° N 23:45:47 88° W 23:45:47 88° W
H-2A R/B 3.7 23:53:53 24° WSW 23:54:29 24° W 23:58:46 10° NW
